Time,TemperatureF,DewpointF,PressureIn,WindDirection,WindDirectionDegrees,WindSpeedMPH,WindSpeedGustMPH,Humidity,HourlyPrecipIn,Conditions,Clouds,dailyrainin,SoftwareType,DateUTC
2013-03-27 00:01:00,29.8,19.9,30.19,South,172,0.0,1.0,66,0.00,,,0.00,WeatherCatV1.14B232,2013-03-27 05:01:00,
2013-03-27 00:06:00,29.8,20.2,30.19,South,172,1.0,1.0,67,0.00,,,0.00,WeatherCatV1.14B232,2013-03-27 05:06:00,
2013-03-27 00:11:00,29.8,20.5,30.19,South,172,0.0,0.0,68,0.00,,,0.00,WeatherCatV1.14B232,2013-03-27 05:11:00,
2013-03-27 00:16:00,29.7,20.5,30.19,South,172,0.0,1.0,68,0.00,,,0.00,WeatherCatV1.14B232,2013-03-27 05:16:00,
2013-03-27 00:21:00,29.7,20.8,30.19,South,172,1.0,2.0,69,0.00,,,0.00,WeatherCatV1.14B232,2013-03-27 05:21:00,
2013-03-27 00:26:00,29.7,20.8,30.19,South,172,0.0,0.0,69,0.00,,,0.00,WeatherCatV1.14B232,2013-03-27 05:26:00,
2013-03-27 00:31:00,29.7,20.8,30.20,South,172,0.0,0.0,69,0.00,,,0.00,WeatherCatV1.14B232,2013-03-27 05:31:00,
2013-03-27 00:36:00,29.7,21.1,30.20,South,172,0.0,0.0,70,0.00,,,0.00,WeatherCatV1.14B232,2013-03-27 05:36:00,
2013-03-27 00:41:00,29.7,21.1,30.20,South,172,0.0,1.0,70,0.00,,,0.00,WeatherCatV1.14B232,2013-03-27 05:41:00,
2013-03-27 00:46:00,29.7,21.1,30.20,South,172,0.0,0.0,70,0.00,,,0.00,WeatherCatV1.14B232,2013-03-27 05:46:00,
2013-03-27 00:51:00,29.7,21.1,30.20,South,172,0.0,0.0,70,0.00,,,0.00,WeatherCatV1.14B232,2013-03-27 05:51:00,
2013-03-27 00:56:00,29.7,21.5,30.20,South,172,0.0,0.0,71,0.00,,,0.00,WeatherCatV1.14B232,2013-03-27 05:56:00,
2013-03-27 01:01:00,29.7,21.5,30.20,South,172,0.0,0.0,71,0.00,,,0.00,WeatherCatV1.14B232,2013-03-27 06:01:00,
2013-03-27 01:06:00,29.5,21.3,30.20,South,172,0.0,0.0,71,0.00,,,0.00,WeatherCatV1.14B232,2013-03-27 06:06:00,
2013-03-27 01:11:00,29.4,21.2,30.20,South,172,0.0,0.0,71,0.00,,,0.00,WeatherCatV1.14B232,2013-03-27 06:11:00,
2013-03-27 01:16:00,29.3,21.1,30.20,South,172,0.0,0.0,71,0.00,,,0.00,WeatherCatV1.14B232,2013-03-27 06:16:00,
2013-03-27 01:21:00,29.0,21.1,30.20,South,172,0.0,0.0,72,0.00,,,0.00,WeatherCatV1.14B232,2013-03-27 06:21:00,
2013-03-27 01:26:00,28.8,21.3,30.20,South,172,0.0,0.0,73,0.00,,,0.00,WeatherCatV1.14B232,2013-03-27 06:26:00,
2013-03-27 01:31:00,28.7,21.2,30.20,South,172,0.0,0.0,73,0.00,,,0.00,WeatherCatV1.14B232,2013-03-27 06:31:00,
2013-03-27 01:36:00,28.5,21.3,30.20,South,172,0.0,0.0,74,0.00,,,0.00,WeatherCatV1.14B232,2013-03-27 06:36:00,
2013-03-27 01:41:00,28.5,21.3,30.20,South,172,0.0,0.0,74,0.00,,,0.00,WeatherCatV1.14B232,2013-03-27 06:41:00,
2013-03-27 01:46:00,28.7,21.8,30.21,South,172,0.0,0.0,75,0.00,,,0.00,WeatherCatV1.14B232,2013-03-27 06:46:00,
2013-03-27 01:51:00,28.7,21.8,30.21,South,172,0.0,0.0,75,0.00,,,0.00,WeatherCatV1.14B232,2013-03-27 06:51:00,
2013-03-27 01:56:00,28.7,21.5,30.21,South,172,0.0,0.0,74,0.00,,,0.00,WeatherCatV1.14B232,2013-03-27 06:56:00,
2013-03-27 02:01:00,28.7,21.8,30.20,South,172,0.0,0.0,75,0.00,,,0.00,WeatherCatV1.14B232,2013-03-27 07:01:00,
2013-03-27 02:06:00,28.7,21.8,30.20,South,172,0.0,0.0,75,0.00,,,0.00,WeatherCatV1.14B232,2013-03-27 07:06:00,
2013-03-27 02:11:00,28.7,21.5,30.20,South,172,0.0,0.0,74,0.00,,,0.00,WeatherCatV1.14B232,2013-03-27 07:11:00,
2013-03-27 02:16:00,28.7,21.5,30.20,South,172,0.0,0.0,74,0.00,,,0.00,WeatherCatV1.14B232,2013-03-27 07:16:00,
2013-03-27 02:21:00,28.7,21.5,30.20,South,172,0.0,0.0,74,0.00,,,0.00,WeatherCatV1.14B232,2013-03-27 07:21:00,
2013-03-27 02:26:00,28.7,21.5,30.20,South,172,0.0,0.0,74,0.00,,,0.00,WeatherCatV1.14B232,2013-03-27 07:26:00,
2013-03-27 02:31:00,28.7,21.5,30.19,South,172,0.0,0.0,74,0.00,,,0.00,WeatherCatV1.14B232,2013-03-27 07:31:00,
2013-03-27 02:36:00,28.5,21.3,30.19,South,172,0.0,0.0,74,0.00,,,0.00,WeatherCatV1.14B232,2013-03-27 07:36:00,
2013-03-27 02:41:00,28.4,21.2,30.19,South,172,0.0,0.0,74,0.00,,,0.00,WeatherCatV1.14B232,2013-03-27 07:41:00,
2013-03-27 02:46:00,28.2,21.0,30.19,South,172,0.0,0.0,74,0.00,,,0.00,WeatherCatV1.14B232,2013-03-27 07:46:00,
2013-03-27 02:51:00,28.2,21.3,30.19,South,172,0.0,0.0,75,0.00,,,0.00,WeatherCatV1.14B232,2013-03-27 07:51:00,
2013-03-27 02:56:00,28.1,21.2,30.19,South,172,0.0,1.0,75,0.00,,,0.00,WeatherCatV1.14B232,2013-03-27 07:56:00,
2013-03-27 03:01:00,27.9,21.0,30.19,South,172,0.0,0.0,75,0.00,,,0.00,WeatherCatV1.14B232,2013-03-27 08:01:00,
2013-03-27 03:06:00,27.8,20.9,30.19,South,172,0.0,1.0,75,0.00,,,0.00,WeatherCatV1.14B232,2013-03-27 08:06:00,
2013-03-27 03:11:00,27.8,20.9,30.19,South,172,0.0,0.0,75,0.00,,,0.00,WeatherCatV1.14B232,2013-03-27 08:11:00,
2013-03-27 03:17:00,27.5,20.6,30.18,South,172,1.0,1.0,75,0.00,,,0.00,WeatherCatV1.14B232,2013-03-27 08:17:00,
2013-03-27 03:22:00,27.3,20.8,30.18,South,172,0.0,0.0,76,0.00,,,0.00,WeatherCatV1.14B232,2013-03-27 08:22:00,
2013-03-27 03:27:00,27.3,20.8,30.18,South,172,0.0,0.0,76,0.00,,,0.00,WeatherCatV1.14B232,2013-03-27 08:27:00,
2013-03-27 03:32:00,27.2,20.7,30.19,South,172,0.0,0.0,76,0.00,,,0.00,WeatherCatV1.14B232,2013-03-27 08:32:00,
2013-03-27 03:37:00,27.0,20.8,30.19,South,172,0.0,0.0,77,0.00,,,0.00,WeatherCatV1.14B232,2013-03-27 08:37:00,
2013-03-27 03:42:00,27.0,20.8,30.19,South,172,1.0,2.0,77,0.00,,,0.00,WeatherCatV1.14B232,2013-03-27 08:42:00,
2013-03-27 03:47:00,26.9,20.7,30.19,South,172,0.0,1.0,77,0.00,,,0.00,WeatherCatV1.14B232,2013-03-27 08:47:00,
2013-03-27 03:52:00,26.7,20.5,30.19,South,172,0.0,0.0,77,0.00,,,0.00,WeatherCatV1.14B232,2013-03-27 08:52:00,
2013-03-27 03:57:00,26.7,20.5,30.19,South,172,0.0,2.0,77,0.00,,,0.00,WeatherCatV1.14B232,2013-03-27 08:57:00,
2013-03-27 04:02:00,26.7,20.5,30.18,South,172,0.0,2.0,77,0.00,,,0.00,WeatherCatV1.14B232,2013-03-27 09:02:00,
2013-03-27 04:07:00,26.7,20.5,30.18,South,172,0.0,1.0,77,0.00,,,0.00,WeatherCatV1.14B232,2013-03-27 09:07:00,
2013-03-27 04:12:00,26.7,20.5,30.18,South,172,1.0,1.0,77,0.00,,,0.00,WeatherCatV1.14B232,2013-03-27 09:12:00,
2013-03-27 04:17:00,26.6,20.4,30.17,South,172,2.0,2.0,77,0.00,,,0.00,WeatherCatV1.14B232,2013-03-27 09:17:00,
2013-03-27 04:22:00,26.6,20.7,30.17,South,172,0.0,2.0,78,0.00,,,0.00,WeatherCatV1.14B232,2013-03-27 09:22:00,
2013-03-27 04:27:00,26.4,20.5,30.17,South,172,0.0,3.0,78,0.00,,,0.00,WeatherCatV1.14B232,2013-03-27 09:27:00,
2013-03-27 04:32:00,26.4,20.5,30.17,South,172,0.0,2.0,78,0.00,,,0.00,WeatherCatV1.14B232,2013-03-27 09:32:00,
2013-03-27 04:37:00,26.6,21.0,30.17,South,172,0.0,2.0,79,0.00,,,0.00,WeatherCatV1.14B232,2013-03-27 09:37:00,
2013-03-27 04:42:00,26.7,21.1,30.17,South,172,0.0,0.0,79,0.00,,,0.00,WeatherCatV1.14B232,2013-03-27 09:42:00,
2013-03-27 04:47:00,26.7,20.8,30.17,South,172,0.0,2.0,78,0.00,,,0.00,WeatherCatV1.14B232,2013-03-27 09:47:00,
2013-03-27 04:52:00,26.9,21.0,30.17,South,172,0.0,1.0,78,0.00,,,0.00,WeatherCatV1.14B232,2013-03-27 09:52:00,
2013-03-27 04:57:00,26.7,20.8,30.17,South,172,0.0,2.0,78,0.00,,,0.00,WeatherCatV1.14B232,2013-03-27 09:57:00,
2013-03-27 05:02:00,26.7,20.8,30.17,South,172,0.0,2.0,78,0.00,,,0.00,WeatherCatV1.14B232,2013-03-27 10:02:00,
2013-03-27 05:07:00,26.7,20.8,30.17,South,171,1.0,3.0,78,0.00,,,0.00,WeatherCatV1.14B232,2013-03-27 10:07:00,
2013-03-27 05:12:00,26.7,20.8,30.17,South,171,0.0,1.0,78,0.00,,,0.00,WeatherCatV1.14B232,2013-03-27 10:12:00,
2013-03-27 05:17:00,26.7,21.1,30.17,South,171,1.0,3.0,79,0.00,,,0.00,WeatherCatV1.14B232,2013-03-27 10:17:00,
2013-03-27 05:22:00,26.6,21.0,30.17,South,171,1.0,1.0,79,0.00,,,0.00,WeatherCatV1.14B232,2013-03-27 10:22:00,
2013-03-27 05:27:00,26.4,20.8,30.17,South,171,0.0,1.0,79,0.00,,,0.00,WeatherCatV1.14B232,2013-03-27 10:27:00,
2013-03-27 05:32:00,26.4,20.8,30.17,South,171,0.0,1.0,79,0.00,,,0.00,WeatherCatV1.14B232,2013-03-27 10:32:00,
2013-03-27 05:37:00,26.3,20.7,30.17,South,171,0.0,3.0,79,0.00,,,0.00,WeatherCatV1.14B232,2013-03-27 10:37:00,
2013-03-27 05:42:00,26.3,20.7,30.17,South,171,0.0,0.0,79,0.00,,,0.00,WeatherCatV1.14B232,2013-03-27 10:42:00,
2013-03-27 05:47:00,26.3,21.0,30.17,South,171,0.0,2.0,80,0.00,,,0.00,WeatherCatV1.14B232,2013-03-27 10:47:00,
2013-03-27 05:52:00,26.1,20.8,30.17,South,171,0.0,0.0,80,0.00,,,0.00,WeatherCatV1.14B232,2013-03-27 10:52:00,
2013-03-27 05:57:00,26.1,20.8,30.17,South,171,0.0,1.0,80,0.00,,,0.00,WeatherCatV1.14B232,2013-03-27 10:57:00,
2013-03-27 06:02:00,26.0,20.7,30.17,South,171,0.0,0.0,80,0.00,,,0.00,WeatherCatV1.14B232,2013-03-27 11:02:00,
2013-03-27 06:07:00,26.0,20.7,30.17,South,171,0.0,1.0,80,0.00,,,0.00,WeatherCatV1.14B232,2013-03-27 11:07:00,
2013-03-27 06:12:00,25.8,20.5,30.17,South,171,0.0,0.0,80,0.00,,,0.00,WeatherCatV1.14B232,2013-03-27 11:12:00,
2013-03-27 06:17:00,25.8,20.5,30.18,South,171,1.0,1.0,80,0.00,,,0.00,WeatherCatV1.14B232,2013-03-27 11:17:00,
2013-03-27 06:22:00,25.8,20.5,30.18,South,171,0.0,0.0,80,0.00,,,0.00,WeatherCatV1.14B232,2013-03-27 11:22:00,
2013-03-27 06:27:00,25.8,20.5,30.18,South,171,0.0,1.0,80,0.00,,,0.00,WeatherCatV1.14B232,2013-03-27 11:27:00,
2013-03-27 06:32:00,25.7,20.4,30.18,South,171,0.0,1.0,80,0.00,,,0.00,WeatherCatV1.14B232,2013-03-27 11:32:00,
2013-03-27 06:37:00,25.7,20.4,30.18,South,171,0.0,1.0,80,0.00,,,0.00,WeatherCatV1.14B232,2013-03-27 11:37:00,
2013-03-27 06:42:00,25.7,20.4,30.18,South,171,0.0,1.0,80,0.00,,,0.00,WeatherCatV1.14B232,2013-03-27 11:42:00,
2013-03-27 06:47:00,25.7,20.4,30.18,South,171,0.0,1.0,80,0.00,,,0.00,WeatherCatV1.14B232,2013-03-27 11:47:00,
2013-03-27 06:52:00,25.7,20.4,30.18,South,171,0.0,0.0,80,0.00,,,0.00,WeatherCatV1.14B232,2013-03-27 11:52:00,
2013-03-27 06:57:00,25.7,20.1,30.18,South,171,0.0,0.0,79,0.00,,,0.00,WeatherCatV1.14B232,2013-03-27 11:57:00,
2013-03-27 07:02:00,25.7,20.1,30.18,South,171,0.0,2.0,79,0.00,,,0.00,WeatherCatV1.14B232,2013-03-27 12:02:00,
2013-03-27 07:07:00,25.7,20.1,30.18,South,171,0.0,2.0,79,0.00,,,0.00,WeatherCatV1.14B232,2013-03-27 12:07:00,
2013-03-27 07:12:00,25.6,20.0,30.18,South,171,0.0,1.0,79,0.00,,,0.00,WeatherCatV1.14B232,2013-03-27 12:12:00,
2013-03-27 07:17:00,25.6,20.0,30.19,South,171,1.0,2.0,79,0.00,,,0.00,WeatherCatV1.14B232,2013-03-27 12:17:00,
2013-03-27 07:22:00,25.6,20.0,30.19,South,171,0.0,2.0,79,0.00,,,0.00,WeatherCatV1.14B232,2013-03-27 12:22:00,
2013-03-27 07:27:00,25.6,20.0,30.19,South,171,0.0,2.0,79,0.00,,,0.00,WeatherCatV1.14B232,2013-03-27 12:27:00,
2013-03-27 07:32:00,25.7,19.8,30.19,South,171,0.0,2.0,78,0.00,,,0.00,WeatherCatV1.14B232,2013-03-27 12:32:00,
2013-03-27 07:37:00,25.8,19.9,30.19,South,171,0.0,1.0,78,0.00,,,0.00,WeatherCatV1.14B232,2013-03-27 12:37:00,
2013-03-27 07:42:00,26.0,20.1,30.19,South,171,0.0,1.0,78,0.00,,,0.00,WeatherCatV1.14B232,2013-03-27 12:42:00,
2013-03-27 07:47:00,26.0,20.1,30.20,South,171,0.0,0.0,78,0.00,,,0.00,WeatherCatV1.14B232,2013-03-27 12:47:00,
2013-03-27 07:52:00,26.1,20.2,30.20,South,171,0.0,2.0,78,0.00,,,0.00,WeatherCatV1.14B232,2013-03-27 12:52:00,
2013-03-27 07:57:00,26.4,20.5,30.20,South,171,0.0,1.0,78,0.00,,,0.00,WeatherCatV1.14B232,2013-03-27 12:57:00,
2013-03-27 08:02:00,26.6,20.7,30.20,South,171,2.0,2.0,78,0.00,,,0.00,WeatherCatV1.14B232,2013-03-27 13:02:00,
2013-03-27 08:07:00,26.9,20.7,30.20,South,171,0.0,2.0,77,0.00,,,0.00,WeatherCatV1.14B232,2013-03-27 13:07:00,
2013-03-27 08:12:00,27.2,21.0,30.20,South,169,2.0,4.0,77,0.00,,,0.00,WeatherCatV1.14B232,2013-03-27 13:12:00,
2013-03-27 08:17:00,27.6,21.4,30.20,South,169,2.0,2.0,77,0.00,,,0.00,WeatherCatV1.14B232,2013-03-27 13:17:00,
2013-03-27 08:22:00,27.9,21.3,30.20,South,169,0.0,3.0,76,0.00,,,0.00,WeatherCatV1.14B232,2013-03-27 13:22:00,
2013-03-27 08:27:00,28.2,21.3,30.20,South,169,2.0,2.0,75,0.00,,,0.00,WeatherCatV1.14B232,2013-03-27 13:27:00,
2013-03-27 08:32:00,28.5,21.6,30.20,SSE,167,0.0,3.0,75,0.00,,,0.00,WeatherCatV1.14B232,2013-03-27 13:32:00,
2013-03-27 08:37:00,28.7,21.5,30.20,SSE,167,1.0,3.0,74,0.00,,,0.00,WeatherCatV1.14B232,2013-03-27 13:37:00,
2013-03-27 08:42:00,29.1,21.9,30.20,SSE,164,2.0,4.0,74,0.00,,,0.00,WeatherCatV1.14B232,2013-03-27 13:42:00,
2013-03-27 08:47:00,29.7,22.4,30.20,SSE,164,0.0,3.0,74,0.00,,,0.00,WeatherCatV1.14B232,2013-03-27 13:47:00,
2013-03-27 08:52:00,30.3,22.4,30.20,SE,129,2.0,2.0,72,0.00,,,0.00,WeatherCatV1.14B232,2013-03-27 13:52:00,
2013-03-27 08:57:00,30.7,22.1,30.20,SE,135,3.0,7.0,70,0.00,,,0.00,WeatherCatV1.14B232,2013-03-27 13:57:00,
2013-03-27 09:02:00,31.0,22.0,30.20,SE,134,5.0,5.0,69,0.00,,,0.00,WeatherCatV1.14B232,2013-03-27 14:02:00,
2013-03-27 09:07:00,31.6,22.3,30.20,SE,134,3.0,5.0,68,0.00,,,0.00,WeatherCatV1.14B232,2013-03-27 14:07:00,
2013-03-27 09:12:00,32.1,22.0,30.20,SE,125,2.0,6.0,66,0.00,,,0.00,WeatherCatV1.14B232,2013-03-27 14:12:00,
2013-03-27 09:17:00,32.2,21.8,30.20,ESE,122,3.0,6.0,65,0.00,,,0.00,WeatherCatV1.14B232,2013-03-27 14:17:00,
2013-03-27 09:22:00,32.5,22.1,30.20,ESE,121,5.0,5.0,65,0.00,,,0.00,WeatherCatV1.14B232,2013-03-27 14:22:00,
2013-03-27 09:27:00,32.7,21.5,30.20,ESE,114,3.0,5.0,63,0.00,,,0.00,WeatherCatV1.14B232,2013-03-27 14:27:00,
2013-03-27 09:32:00,33.2,22.7,30.21,ESE,108,5.0,6.0,65,0.00,,,0.00,WeatherCatV1.14B232,2013-03-27 14:32:00,
2013-03-27 09:37:00,33.5,21.9,30.21,SE,146,4.0,6.0,62,0.00,,,0.00,WeatherCatV1.14B232,2013-03-27 14:37:00,
2013-03-27 09:42:00,34.0,22.4,30.21,SSE,156,0.0,3.0,62,0.00,,,0.00,WeatherCatV1.14B232,2013-03-27 14:42:00,
2013-03-27 09:47:00,34.6,22.6,30.21,ESE,105,2.0,9.0,61,0.00,,,0.00,WeatherCatV1.14B232,2013-03-27 14:47:00,
2013-03-27 09:52:00,35.0,21.7,30.21,ESE,120,2.0,6.0,58,0.00,,,0.00,WeatherCatV1.14B232,2013-03-27 14:52:00,
2013-03-27 09:57:00,35.5,21.8,30.21,ESE,105,5.0,10.0,57,0.00,,,0.00,WeatherCatV1.14B232,2013-03-27 14:57:00,
2013-03-27 10:02:00,35.6,21.5,30.20,South,182,2.0,8.0,56,0.00,,,0.00,WeatherCatV1.14B232,2013-03-27 15:02:00,
2013-03-27 10:07:00,35.9,21.8,30.20,East,100,4.0,4.0,56,0.00,,,0.00,WeatherCatV1.14B232,2013-03-27 15:07:00,
2013-03-27 10:12:00,36.6,22.4,30.20,SE,139,4.0,4.0,56,0.00,,,0.00,WeatherCatV1.14B232,2013-03-27 15:12:00,
2013-03-27 10:17:00,37.0,21.9,30.19,SE,127,5.0,6.0,54,0.00,,,0.00,WeatherCatV1.14B232,2013-03-27 15:17:00,
2013-03-27 10:22:00,37.2,21.7,30.19,SE,138,4.0,7.0,53,0.00,,,0.00,WeatherCatV1.14B232,2013-03-27 15:22:00,
2013-03-27 10:27:00,37.5,22.4,30.19,ESE,111,6.0,9.0,54,0.00,,,0.00,WeatherCatV1.14B232,2013-03-27 15:27:00,
2013-03-27 10:32:00,37.8,22.2,30.19,SSE,157,2.0,5.0,53,0.00,,,0.00,WeatherCatV1.14B232,2013-03-27 15:32:00,
2013-03-27 10:38:00,38.0,22.4,30.19,East,88,3.0,7.0,53,0.00,,,0.00,WeatherCatV1.14B232,2013-03-27 15:38:00,
2013-03-27 10:43:00,38.6,22.5,30.19,East,98,5.0,7.0,52,0.00,,,0.00,WeatherCatV1.14B232,2013-03-27 15:43:00,
2013-03-27 10:48:00,38.8,22.2,30.19,SE,135,5.0,7.0,51,0.00,,,0.00,WeatherCatV1.14B232,2013-03-27 15:48:00,
2013-03-27 10:53:00,39.5,22.9,30.19,ESE,105,4.0,6.0,51,0.00,,,0.00,WeatherCatV1.14B232,2013-03-27 15:53:00,
2013-03-27 10:58:00,39.6,22.0,30.19,SSE,148,3.0,6.0,49,0.00,,,0.00,WeatherCatV1.14B232,2013-03-27 15:58:00,
2013-03-27 11:03:00,39.9,22.8,30.18,SSE,151,5.0,6.0,50,0.00,,,0.00,WeatherCatV1.14B232,2013-03-27 16:03:00,
2013-03-27 11:08:00,40.3,22.7,30.18,ESE,122,2.0,5.0,49,0.00,,,0.00,WeatherCatV1.14B232,2013-03-27 16:08:00,
2013-03-27 11:13:00,40.8,22.1,30.18,SE,127,4.0,6.0,47,0.00,,,0.00,WeatherCatV1.14B232,2013-03-27 16:13:00,
2013-03-27 11:18:00,41.1,21.9,30.18,ESE,107,4.0,5.0,46,0.00,,,0.00,WeatherCatV1.14B232,2013-03-27 16:18:00,
2013-03-27 11:23:00,41.3,21.6,30.18,ESE,115,3.0,6.0,45,0.00,,,0.00,WeatherCatV1.14B232,2013-03-27 16:23:00,
2013-03-27 11:28:00,41.3,21.0,30.18,ESE,120,6.0,6.0,44,0.00,,,0.00,WeatherCatV1.14B232,2013-03-27 16:28:00,
2013-03-27 11:33:00,41.8,21.5,30.18,ESE,106,3.0,7.0,44,0.00,,,0.00,WeatherCatV1.14B232,2013-03-27 16:33:00,
2013-03-27 11:38:00,42.1,21.8,30.18,SE,142,3.0,6.0,44,0.00,,,0.00,WeatherCatV1.14B232,2013-03-27 16:38:00,
2013-03-27 11:43:00,41.9,21.1,30.18,SE,128,4.0,7.0,43,0.00,,,0.00,WeatherCatV1.14B232,2013-03-27 16:43:00,
2013-03-27 11:48:00,42.3,22.5,30.17,ESE,121,3.0,4.0,45,0.00,,,0.00,WeatherCatV1.14B232,2013-03-27 16:48:00,
2013-03-27 11:53:00,43.1,21.6,30.17,SE,146,1.0,6.0,42,0.00,,,0.00,WeatherCatV1.14B232,2013-03-27 16:53:00,
2013-03-27 11:58:00,43.5,22.5,30.17,SSE,160,2.0,7.0,43,0.00,,,0.00,WeatherCatV1.14B232,2013-03-27 16:58:00,
2013-03-27 12:03:00,43.8,21.6,30.18,South,176,3.0,9.0,41,0.00,,,0.00,WeatherCatV1.14B232,2013-03-27 17:03:00,
2013-03-27 12:08:00,43.3,21.2,30.18,ESE,116,5.0,9.0,41,0.00,,,0.00,WeatherCatV1.14B232,2013-03-27 17:08:00,
2013-03-27 12:13:00,42.9,21.4,30.18,SSE,165,3.0,6.0,42,0.00,,,0.00,WeatherCatV1.14B232,2013-03-27 17:13:00,
2013-03-27 12:18:00,42.8,21.3,30.18,SE,146,2.0,7.0,42,0.00,,,0.00,WeatherCatV1.14B232,2013-03-27 17:18:00,
2013-03-27 12:23:00,42.6,21.7,30.18,SE,124,3.0,6.0,43,0.00,,,0.00,WeatherCatV1.14B232,2013-03-27 17:23:00,
2013-03-27 12:28:00,42.6,21.7,30.18,ESE,121,4.0,4.0,43,0.00,,,0.00,WeatherCatV1.14B232,2013-03-27 17:28:00,
2013-03-27 12:33:00,42.9,22.0,30.17,East,100,5.0,9.0,43,0.00,,,0.00,WeatherCatV1.14B232,2013-03-27 17:33:00,
2013-03-27 12:38:00,42.8,22.4,30.17,South,178,3.0,11.0,44,0.00,,,0.00,WeatherCatV1.14B232,2013-03-27 17:38:00,
2013-03-27 12:43:00,42.9,22.5,30.17,SSW,192,0.0,5.0,44,0.00,,,0.00,WeatherCatV1.14B232,2013-03-27 17:43:00,
2013-03-27 12:48:00,42.9,22.0,30.17,SE,136,3.0,8.0,43,0.00,,,0.00,WeatherCatV1.14B232,2013-03-27 17:48:00,
2013-03-27 12:53:00,42.9,22.5,30.17,South,177,5.0,9.0,44,0.00,,,0.00,WeatherCatV1.14B232,2013-03-27 17:53:00,
2013-03-27 12:58:00,42.9,22.0,30.17,South,186,3.0,7.0,43,0.00,,,0.00,WeatherCatV1.14B232,2013-03-27 17:58:00,
2013-03-27 13:03:00,43.1,22.7,30.17,SE,130,2.0,5.0,44,0.00,,,0.00,WeatherCatV1.14B232,2013-03-27 18:03:00,
2013-03-27 13:08:00,43.2,22.2,30.17,SE,132,3.0,6.0,43,0.00,,,0.00,WeatherCatV1.14B232,2013-03-27 18:08:00,
2013-03-27 13:13:00,43.1,22.7,30.17,ESE,111,3.0,4.0,44,0.00,,,0.00,WeatherCatV1.14B232,2013-03-27 18:13:00,
2013-03-27 13:18:00,43.2,22.2,30.17,ESE,110,7.0,7.0,43,0.00,,,0.00,WeatherCatV1.14B232,2013-03-27 18:18:00,
2013-03-27 13:23:00,43.2,22.2,30.17,ESE,115,3.0,10.0,43,0.00,,,0.00,WeatherCatV1.14B232,2013-03-27 18:23:00,
2013-03-27 13:28:00,43.2,22.8,30.17,SE,130,3.0,8.0,44,0.00,,,0.00,WeatherCatV1.14B232,2013-03-27 18:28:00,
2013-03-27 13:33:00,43.5,22.5,30.16,SE,140,4.0,9.0,43,0.00,,,0.00,WeatherCatV1.14B232,2013-03-27 18:33:00,
2013-03-27 13:38:00,43.8,23.3,30.16,ESE,111,2.0,7.0,44,0.00,,,0.00,WeatherCatV1.14B232,2013-03-27 18:38:00,
2013-03-27 13:43:00,44.3,23.8,30.16,ENE,71,1.0,9.0,44,0.00,,,0.00,WeatherCatV1.14B232,2013-03-27 18:43:00,
2013-03-27 13:48:00,45.1,25.0,30.15,ESE,103,1.0,6.0,45,0.00,,,0.00,WeatherCatV1.14B232,2013-03-27 18:48:00,
2013-03-27 13:53:00,45.4,23.7,30.15,East,99,3.0,6.0,42,0.00,,,0.00,WeatherCatV1.14B232,2013-03-27 18:53:00,
2013-03-27 13:58:00,45.7,24.5,30.15,SE,128,1.0,7.0,43,0.00,,,0.00,WeatherCatV1.14B232,2013-03-27 18:58:00,
2013-03-27 14:03:00,46.1,24.3,30.15,ESE,115,3.0,7.0,42,0.00,,,0.00,WeatherCatV1.14B232,2013-03-27 19:03:00,
2013-03-27 14:08:00,46.2,24.4,30.15,South,171,3.0,10.0,42,0.00,,,0.00,WeatherCatV1.14B232,2013-03-27 19:08:00,
2013-03-27 14:13:00,46.4,24.6,30.15,SSE,149,3.0,9.0,42,0.00,,,0.00,WeatherCatV1.14B232,2013-03-27 19:13:00,
2013-03-27 14:18:00,46.5,24.7,30.13,SE,138,4.0,6.0,42,0.00,,,0.00,WeatherCatV1.14B232,2013-03-27 19:18:00,
2013-03-27 14:23:00,47.0,24.5,30.13,SE,128,0.0,5.0,41,0.00,,,0.00,WeatherCatV1.14B232,2013-03-27 19:23:00,
2013-03-27 14:28:00,47.9,25.9,30.13,South,178,3.0,10.0,42,0.00,,,0.00,WeatherCatV1.14B232,2013-03-27 19:28:00,
2013-03-27 14:33:00,48.2,25.0,30.13,ESE,122,0.0,8.0,40,0.00,,,0.00,WeatherCatV1.14B232,2013-03-27 19:33:00,
2013-03-27 14:38:00,48.3,24.5,30.13,SSE,163,5.0,11.0,39,0.00,,,0.00,WeatherCatV1.14B232,2013-03-27 19:38:00,
2013-03-27 14:43:00,48.5,24.7,30.13,ESE,109,3.0,6.0,39,0.00,,,0.00,WeatherCatV1.14B232,2013-03-27 19:43:00,
2013-03-27 14:48:00,48.9,26.2,30.12,SSE,153,3.0,4.0,41,0.00,,,0.00,WeatherCatV1.14B232,2013-03-27 19:48:00,
2013-03-27 14:53:00,49.1,25.8,30.12,SE,142,3.0,11.0,40,0.00,,,0.00,WeatherCatV1.14B232,2013-03-27 19:53:00,
2013-03-27 14:58:00,49.4,24.2,30.12,SE,144,4.0,11.0,37,0.00,,,0.00,WeatherCatV1.14B232,2013-03-27 19:58:00,
2013-03-27 15:03:00,49.4,27.3,30.11,ESE,113,6.0,6.0,42,0.00,,,0.00,WeatherCatV1.14B232,2013-03-27 20:03:00,
2013-03-27 15:08:00,49.5,25.0,30.11,ESE,113,2.0,4.0,38,0.00,,,0.00,WeatherCatV1.14B232,2013-03-27 20:08:00,
2013-03-27 15:13:00,49.4,24.2,30.11,East,95,3.0,9.0,37,0.00,,,0.00,WeatherCatV1.14B232,2013-03-27 20:13:00,
2013-03-27 15:18:00,49.4,24.9,30.11,ESE,113,3.0,6.0,38,0.00,,,0.00,WeatherCatV1.14B232,2013-03-27 20:18:00,
2013-03-27 15:23:00,49.6,25.7,30.11,SE,127,3.0,6.0,39,0.00,,,0.00,WeatherCatV1.14B232,2013-03-27 20:23:00,
2013-03-27 15:28:00,50.1,24.9,30.11,ESE,104,4.0,6.0,37,0.00,,,0.00,WeatherCatV1.14B232,2013-03-27 20:28:00,
2013-03-27 15:33:00,50.1,24.9,30.11,ESE,123,3.0,9.0,37,0.00,,,0.00,WeatherCatV1.14B232,2013-03-27 20:33:00,
2013-03-27 15:38:00,50.1,25.5,30.11,SE,138,4.0,6.0,38,0.00,,,0.00,WeatherCatV1.14B232,2013-03-27 20:38:00,
2013-03-27 15:43:00,50.5,24.6,30.11,SSE,167,1.0,3.0,36,0.00,,,0.00,WeatherCatV1.14B232,2013-03-27 20:43:00,
2013-03-27 15:48:00,50.7,24.7,30.10,South,170,3.0,5.0,36,0.00,,,0.00,WeatherCatV1.14B232,2013-03-27 20:48:00,
2013-03-27 15:53:00,51.1,25.1,30.10,SSE,162,4.0,4.0,36,0.00,,,0.00,WeatherCatV1.14B232,2013-03-27 20:53:00,
2013-03-27 15:58:00,51.7,25.6,30.10,South,186,2.0,9.0,36,0.00,,,0.00,WeatherCatV1.14B232,2013-03-27 20:58:00,
2013-03-27 16:03:00,51.7,24.9,30.10,SE,134,3.0,6.0,35,0.00,,,0.00,WeatherCatV1.14B232,2013-03-27 21:03:00,
2013-03-27 16:08:00,51.4,24.7,30.10,East,84,1.0,4.0,35,0.00,,,0.00,WeatherCatV1.14B232,2013-03-27 21:08:00,
2013-03-27 16:13:00,51.7,25.6,30.10,SE,144,3.0,6.0,36,0.00,,,0.00,WeatherCatV1.14B232,2013-03-27 21:13:00,
2013-03-27 16:18:00,51.7,24.9,30.09,East,101,5.0,7.0,35,0.00,,,0.00,WeatherCatV1.14B232,2013-03-27 21:18:00,
2013-03-27 16:23:00,51.7,24.2,30.09,ESE,119,3.0,8.0,34,0.00,,,0.00,WeatherCatV1.14B232,2013-03-27 21:23:00,
2013-03-27 16:28:00,51.9,24.4,30.09,East,96,4.0,4.0,34,0.00,,,0.00,WeatherCatV1.14B232,2013-03-27 21:28:00,
2013-03-27 16:33:00,52.2,24.7,30.09,ESE,108,1.0,3.0,34,0.00,,,0.00,WeatherCatV1.14B232,2013-03-27 21:33:00,
2013-03-27 16:38:00,52.3,24.8,30.09,SE,134,4.0,5.0,34,0.00,,,0.00,WeatherCatV1.14B232,2013-03-27 21:38:00,
2013-03-27 16:43:00,52.3,24.1,30.09,ESE,117,3.0,5.0,33,0.00,,,0.00,WeatherCatV1.14B232,2013-03-27 21:43:00,
2013-03-27 16:48:00,52.2,24.0,30.09,SE,126,0.0,4.0,33,0.00,,,0.00,WeatherCatV1.14B232,2013-03-27 21:48:00,
2013-03-27 16:53:00,52.0,24.5,30.09,ESE,121,5.0,9.0,34,0.00,,,0.00,WeatherCatV1.14B232,2013-03-27 21:53:00,
2013-03-27 16:58:00,52.0,25.2,30.09,SSE,153,5.0,6.0,35,0.00,,,0.00,WeatherCatV1.14B232,2013-03-27 21:58:00,
2013-03-27 17:03:00,52.3,25.5,30.09,SE,144,7.0,7.0,35,0.00,,,0.00,WeatherCatV1.14B232,2013-03-27 22:03:00,
2013-03-27 17:09:00,52.3,25.5,30.09,South,186,6.0,6.0,35,0.00,,,0.00,WeatherCatV1.14B232,2013-03-27 22:09:00,
2013-03-27 17:14:00,52.2,25.4,30.09,SE,126,3.0,6.0,35,0.00,,,0.00,WeatherCatV1.14B232,2013-03-27 22:14:00,
2013-03-27 17:19:00,52.0,25.2,30.10,SE,132,2.0,5.0,35,0.00,,,0.00,WeatherCatV1.14B232,2013-03-27 22:19:00,
2013-03-27 17:24:00,52.0,25.2,30.10,SE,132,4.0,6.0,35,0.00,,,0.00,WeatherCatV1.14B232,2013-03-27 22:24:00,
2013-03-27 17:29:00,52.0,25.9,30.10,ESE,122,0.0,8.0,36,0.00,,,0.00,WeatherCatV1.14B232,2013-03-27 22:29:00,
2013-03-27 17:34:00,52.0,25.9,30.10,ESE,117,2.0,3.0,36,0.00,,,0.00,WeatherCatV1.14B232,2013-03-27 22:34:00,
2013-03-27 17:39:00,51.9,25.1,30.10,ESE,119,2.0,6.0,35,0.00,,,0.00,WeatherCatV1.14B232,2013-03-27 22:39:00,
2013-03-27 17:44:00,51.9,26.5,30.10,South,170,3.0,7.0,37,0.00,,,0.00,WeatherCatV1.14B232,2013-03-27 22:44:00,
2013-03-27 17:49:00,51.9,25.8,30.10,ESE,116,2.0,3.0,36,0.00,,,0.00,WeatherCatV1.14B232,2013-03-27 22:49:00,
2013-03-27 17:54:00,51.7,26.3,30.10,ESE,116,1.0,7.0,37,0.00,,,0.00,WeatherCatV1.14B232,2013-03-27 22:54:00,
2013-03-27 17:59:00,51.6,26.8,30.09,ESE,117,0.0,4.0,38,0.00,,,0.00,WeatherCatV1.14B232,2013-03-27 22:59:00,
2013-03-27 18:04:00,51.7,26.9,30.09,SSE,148,4.0,9.0,38,0.00,,,0.00,WeatherCatV1.14B232,2013-03-27 23:04:00,
2013-03-27 18:09:00,51.6,26.2,30.09,ESE,112,0.0,7.0,37,0.00,,,0.00,WeatherCatV1.14B232,2013-03-27 23:09:00,
2013-03-27 18:14:00,51.6,26.8,30.09,SE,140,3.0,6.0,38,0.00,,,0.00,WeatherCatV1.14B232,2013-03-27 23:14:00,
2013-03-27 18:19:00,51.3,26.6,30.10,SE,125,6.0,6.0,38,0.00,,,0.00,WeatherCatV1.14B232,2013-03-27 23:19:00,
2013-03-27 18:24:00,51.0,26.9,30.10,ESE,109,3.0,5.0,39,0.00,,,0.00,WeatherCatV1.14B232,2013-03-27 23:24:00,
2013-03-27 18:29:00,50.8,27.4,30.10,SSE,165,1.0,9.0,40,0.00,,,0.00,WeatherCatV1.14B232,2013-03-27 23:29:00,
2013-03-27 18:34:00,50.5,27.1,30.10,SE,142,2.0,8.0,40,0.00,,,0.00,WeatherCatV1.14B232,2013-03-27 23:34:00,
2013-03-27 18:39:00,50.4,27.0,30.10,South,169,4.0,4.0,40,0.00,,,0.00,WeatherCatV1.14B232,2013-03-27 23:39:00,
2013-03-27 18:44:00,50.2,26.2,30.10,SSE,161,2.0,8.0,39,0.00,,,0.00,WeatherCatV1.14B232,2013-03-27 23:44:00,
2013-03-27 18:49:00,49.9,26.5,30.10,SE,125,4.0,8.0,40,0.00,,,0.00,WeatherCatV1.14B232,2013-03-27 23:49:00,
2013-03-27 18:54:00,49.6,26.9,30.10,SSE,166,3.0,6.0,41,0.00,,,0.00,WeatherCatV1.14B232,2013-03-27 23:54:00,
2013-03-27 18:59:00,49.5,26.8,30.11,South,169,0.0,4.0,41,0.00,,,0.00,WeatherCatV1.14B232,2013-03-27 23:59:00,
2013-03-27 19:04:00,49.2,27.1,30.11,South,169,1.0,4.0,42,0.00,,,0.00,WeatherCatV1.14B232,2013-03-28 00:04:00,
2013-03-27 19:09:00,48.9,26.8,30.11,SSE,164,0.0,2.0,42,0.00,,,0.00,WeatherCatV1.14B232,2013-03-28 00:09:00,
2013-03-27 19:14:00,48.6,27.1,30.11,ESE,115,3.0,4.0,43,0.00,,,0.00,WeatherCatV1.14B232,2013-03-28 00:14:00,
2013-03-27 19:19:00,48.3,27.4,30.11,ESE,121,0.0,4.0,44,0.00,,,0.00,WeatherCatV1.14B232,2013-03-28 00:19:00,
2013-03-27 19:24:00,48.0,27.7,30.11,ESE,122,1.0,1.0,45,0.00,,,0.00,WeatherCatV1.14B232,2013-03-28 00:24:00,
2013-03-27 19:29:00,47.6,27.9,30.12,SSE,162,0.0,2.0,46,0.00,,,0.00,WeatherCatV1.14B232,2013-03-28 00:29:00,
2013-03-27 19:34:00,47.3,27.6,30.12,SE,144,1.0,3.0,46,0.00,,,0.00,WeatherCatV1.14B232,2013-03-28 00:34:00,
2013-03-27 19:39:00,46.8,27.6,30.12,SE,144,1.0,3.0,47,0.00,,,0.00,WeatherCatV1.14B232,2013-03-28 00:39:00,
2013-03-27 19:44:00,46.4,27.8,30.12,SE,144,4.0,4.0,48,0.00,,,0.00,WeatherCatV1.14B232,2013-03-28 00:44:00,
2013-03-27 19:49:00,46.1,28.0,30.12,SE,144,0.0,2.0,49,0.00,,,0.00,WeatherCatV1.14B232,2013-03-28 00:49:00,
2013-03-27 19:54:00,45.7,28.1,30.12,SE,144,0.0,3.0,50,0.00,,,0.00,WeatherCatV1.14B232,2013-03-28 00:54:00,
2013-03-27 19:59:00,45.2,28.2,30.13,SE,144,0.0,2.0,51,0.00,,,0.00,WeatherCatV1.14B232,2013-03-28 00:59:00,
2013-03-27 20:04:00,44.9,28.4,30.13,SE,144,0.0,2.0,52,0.00,,,0.00,WeatherCatV1.14B232,2013-03-28 01:04:00,
2013-03-27 20:09:00,44.5,28.4,30.13,SE,144,0.0,2.0,53,0.00,,,0.00,WeatherCatV1.14B232,2013-03-28 01:09:00,
2013-03-27 20:14:00,44.2,28.2,30.13,SE,144,0.0,2.0,53,0.00,,,0.00,WeatherCatV1.14B232,2013-03-28 01:14:00,
2013-03-27 20:19:00,43.9,28.3,30.13,SE,144,0.0,2.0,54,0.00,,,0.00,WeatherCatV1.14B232,2013-03-28 01:19:00,
2013-03-27 20:24:00,43.6,28.5,30.13,SE,144,0.0,1.0,55,0.00,,,0.00,WeatherCatV1.14B232,2013-03-28 01:24:00,
2013-03-27 20:29:00,43.3,28.2,30.13,SE,144,0.0,0.0,55,0.00,,,0.00,WeatherCatV1.14B232,2013-03-28 01:29:00,
2013-03-27 20:34:00,43.2,28.6,30.13,SE,144,0.0,0.0,56,0.00,,,0.00,WeatherCatV1.14B232,2013-03-28 01:34:00,
2013-03-27 20:39:00,42.9,28.3,30.13,SE,144,0.0,0.0,56,0.00,,,0.00,WeatherCatV1.14B232,2013-03-28 01:39:00,
2013-03-27 20:44:00,42.6,28.4,30.13,SE,144,1.0,1.0,57,0.00,,,0.00,WeatherCatV1.14B232,2013-03-28 01:44:00,
2013-03-27 20:49:00,42.5,28.8,30.13,SE,144,0.0,2.0,58,0.00,,,0.00,WeatherCatV1.14B232,2013-03-28 01:49:00,
2013-03-27 20:54:00,42.3,28.6,30.13,SE,144,0.0,1.0,58,0.00,,,0.00,WeatherCatV1.14B232,2013-03-28 01:54:00,
2013-03-27 20:59:00,42.2,28.9,30.14,SE,144,0.0,3.0,59,0.00,,,0.00,WeatherCatV1.14B232,2013-03-28 01:59:00,
2013-03-27 21:04:00,42.1,28.8,30.14,SE,144,0.0,2.0,59,0.00,,,0.00,WeatherCatV1.14B232,2013-03-28 02:04:00,
2013-03-27 21:09:00,41.9,28.6,30.14,SE,144,0.0,2.0,59,0.00,,,0.00,WeatherCatV1.14B232,2013-03-28 02:09:00,
2013-03-27 21:14:00,41.8,28.9,30.14,SE,144,0.0,3.0,60,0.00,,,0.00,WeatherCatV1.14B232,2013-03-28 02:14:00,
2013-03-27 21:19:00,41.6,28.8,30.14,SE,144,0.0,1.0,60,0.00,,,0.00,WeatherCatV1.14B232,2013-03-28 02:19:00,
2013-03-27 21:24:00,41.5,29.1,30.14,SE,144,0.0,3.0,61,0.00,,,0.00,WeatherCatV1.14B232,2013-03-28 02:24:00,
2013-03-27 21:29:00,41.2,28.8,30.15,SE,144,0.0,1.0,61,0.00,,,0.00,WeatherCatV1.14B232,2013-03-28 02:29:00,
2013-03-27 21:34:00,41.1,29.1,30.15,SE,144,0.0,0.0,62,0.00,,,0.00,WeatherCatV1.14B232,2013-03-28 02:34:00,
2013-03-27 21:39:00,40.6,28.6,30.15,SE,144,0.0,0.0,62,0.00,,,0.00,WeatherCatV1.14B232,2013-03-28 02:39:00,
2013-03-27 21:44:00,40.3,28.7,30.15,SE,144,0.0,3.0,63,0.00,,,0.00,WeatherCatV1.14B232,2013-03-28 02:44:00,
2013-03-27 21:49:00,40.1,28.9,30.15,SE,144,0.0,3.0,64,0.00,,,0.00,WeatherCatV1.14B232,2013-03-28 02:49:00,
2013-03-27 21:54:00,39.8,29.0,30.15,SE,144,1.0,1.0,65,0.00,,,0.00,WeatherCatV1.14B232,2013-03-28 02:54:00,
2013-03-27 21:59:00,39.5,28.7,30.16,SE,144,0.0,2.0,65,0.00,,,0.00,WeatherCatV1.14B232,2013-03-28 02:59:00,
2013-03-27 22:04:00,39.3,29.3,30.16,SE,144,0.0,2.0,67,0.00,,,0.00,WeatherCatV1.14B232,2013-03-28 03:04:00,
2013-03-27 22:09:00,39.2,29.2,30.16,SE,144,0.0,1.0,67,0.00,,,0.00,WeatherCatV1.14B232,2013-03-28 03:09:00,
2013-03-27 22:14:00,39.1,29.4,30.16,SE,144,2.0,2.0,68,0.00,,,0.00,WeatherCatV1.14B232,2013-03-28 03:14:00,
2013-03-27 22:19:00,38.9,29.3,30.16,SE,144,0.0,2.0,68,0.00,,,0.00,WeatherCatV1.14B232,2013-03-28 03:19:00,
2013-03-27 22:24:00,38.8,29.5,30.16,SE,144,0.0,1.0,69,0.00,,,0.00,WeatherCatV1.14B232,2013-03-28 03:24:00,
2013-03-27 22:29:00,38.6,29.3,30.16,SE,144,0.0,0.0,69,0.00,,,0.00,WeatherCatV1.14B232,2013-03-28 03:29:00,
2013-03-27 22:34:00,38.3,29.0,30.16,SE,144,0.0,0.0,69,0.00,,,0.00,WeatherCatV1.14B232,2013-03-28 03:34:00,
2013-03-27 22:39:00,38.2,28.9,30.16,SE,144,0.0,1.0,69,0.00,,,0.00,WeatherCatV1.14B232,2013-03-28 03:39:00,
2013-03-27 22:44:00,37.9,29.0,30.16,SE,144,0.0,0.0,70,0.00,,,0.00,WeatherCatV1.14B232,2013-03-28 03:44:00,
2013-03-27 22:49:00,37.8,28.9,30.16,SE,144,0.0,0.0,70,0.00,,,0.00,WeatherCatV1.14B232,2013-03-28 03:49:00,
2013-03-27 22:54:00,37.6,29.1,30.16,SE,144,0.0,0.0,71,0.00,,,0.00,WeatherCatV1.14B232,2013-03-28 03:54:00,
2013-03-27 22:59:00,37.3,28.8,30.16,SE,144,0.0,0.0,71,0.00,,,0.00,WeatherCatV1.14B232,2013-03-28 03:59:00,
2013-03-27 23:00:00,37.3,28.8,30.16,SE,144,0.0,0.0,71,0.00,,,0.00,WeatherCatV1.14B232,2013-03-28 04:00:00,
2013-03-27 23:01:00,37.3,28.8,30.16,SE,144,0.0,1.0,71,0.00,,,0.00,WeatherCatV1.14B232,2013-03-28 04:01:00,
2013-03-27 23:06:00,37.2,29.0,30.16,SE,144,0.0,1.0,72,0.00,,,0.00,WeatherCatV1.14B232,2013-03-28 04:06:00,
2013-03-27 23:11:00,37.0,28.8,30.16,SE,144,0.0,0.0,72,0.00,,,0.00,WeatherCatV1.14B232,2013-03-28 04:11:00,
2013-03-27 23:16:00,36.9,29.1,30.16,SE,144,0.0,0.0,73,0.00,,,0.00,WeatherCatV1.14B232,2013-03-28 04:16:00,
2013-03-27 23:21:00,36.9,29.1,30.16,SE,144,0.0,0.0,73,0.00,,,0.00,WeatherCatV1.14B232,2013-03-28 04:21:00,
2013-03-27 23:26:00,36.8,29.3,30.16,SE,144,1.0,1.0,74,0.00,,,0.00,WeatherCatV1.14B232,2013-03-28 04:26:00,
2013-03-27 23:31:00,36.6,29.1,30.16,SE,144,0.0,0.0,74,0.00,,,0.00,WeatherCatV1.14B232,2013-03-28 04:31:00,
2013-03-27 23:36:00,36.5,29.0,30.16,SE,144,0.0,0.0,74,0.00,,,0.00,WeatherCatV1.14B232,2013-03-28 04:36:00,
2013-03-27 23:41:00,36.3,28.8,30.16,SE,144,0.0,0.0,74,0.00,,,0.00,WeatherCatV1.14B232,2013-03-28 04:41:00,
2013-03-27 23:46:00,36.2,29.1,30.17,SE,144,0.0,0.0,75,0.00,,,0.00,WeatherCatV1.14B232,2013-03-28 04:46:00,
2013-03-27 23:51:00,36.0,28.9,30.17,SE,144,0.0,0.0,75,0.00,,,0.00,WeatherCatV1.14B232,2013-03-28 04:51:00,
2013-03-27 23:56:00,35.9,28.8,30.17,SE,144,0.0,1.0,75,0.00,,,0.00,WeatherCatV1.14B232,2013-03-28 04:56:00,